This is the latest recevied weather packets stored in our database for station/object K8GLX. If no packets are shown the sender has not sent any weather packets the latest 10 day(s).
| Time | Temp. | Humidity | Pressure | Rain* | Wind** | Luminosity | Snow |
|---|---|---|---|---|---|---|---|
| 1777913534 | 21.67° C | 40% | 1005.5 hPa | 0 mm | - | 781 W/m² | - |
| 1777913229 | 21.11° C | 41% | 1005.7 hPa | 0 mm | - | 778 W/m² | - |
| 1777912935 | 21.11° C | 40% | 1005.8 hPa | 0 mm | - | 778 W/m² | - |
| 1777912629 | 21.11° C | 41% | 1006.1 hPa | 0 mm | - | 774 W/m² | - |
| 1777912334 | 20.56° C | 43% | 1006.1 hPa | 0 mm | - | 770 W/m² | - |
| 1777912029 | 20.56° C | 44% | 1006.1 hPa | 0 mm | - | 768 W/m² | - |
| 1777911736 | 20.56° C | 42% | 1006.3 hPa | 0 mm | - | 763 W/m² | - |
| 1777911429 | 20° C | 43% | 1006.3 hPa | 0 mm | - | 759 W/m² | - |
| 1777911261 | 20° C | 43% | 1006.3 hPa | 0 mm | - | 754 W/m² | - |
| 1777910829 | 20° C | 44% | 1006.4 hPa | 0 mm | - | 749 W/m² | - |
| 1777910661 | 19.44° C | 44% | 1006.3 hPa | 0 mm | - | 742 W/m² | - |
| 1777910229 | 19.44° C | 46% | 1006.5 hPa | 0 mm | - | 736 W/m² | - |
| 1777909935 | 19.44° C | 46% | 1006.6 hPa | 0 mm | - | 728 W/m² | - |
| 1777909629 | 19.44° C | 46% | 1006.4 hPa | 0 mm | - | 723 W/m² | - |
| 1777909334 | 19.44° C | 45% | 1006.4 hPa | 0 mm | - | 715 W/m² | - |
| 1777909032 | 19.44° C | 46% | 1006.7 hPa | 0 mm | - | 708 W/m² | - |
| 1777908734 | 19.44° C | 45% | 1006.5 hPa | 0 mm | - | 700 W/m² | - |
| 1777908430 | 18.89° C | 47% | 1006.6 hPa | 0 mm | - | 691 W/m² | - |
| 1777908135 | 18.89° C | 46% | 1006.5 hPa | 0 mm | - | 682 W/m² | - |
| 1777907829 | 18.89° C | 46% | 1006.5 hPa | 0 mm | - | 673 W/m² | - |
| 1777907535 | 18.89° C | 47% | 1006.7 hPa | 0 mm | - | 665 W/m² | - |
| 1777907229 | 18.89° C | 47% | 1006.7 hPa | 0 mm | - | 656 W/m² | - |
| 1777906934 | 18.33° C | 48% | 1006.9 hPa | 0 mm | - | 646 W/m² | - |
| 1777906628 | 18.33° C | 48% | 1006.8 hPa | 0 mm | - | 637 W/m² | - |
| 1777906461 | 17.78° C | 49% | 1006.7 hPa | 0 mm | - | 627 W/m² | - |
* Rain latest hour (hover to see other rain measurements)
** Current wind speed in m/s (hover to see current wind gust speed)